This demonstration page uses our WeatherBlox Daily Observations layout. Learn more.

Left ArrowRight Arrow

Hourly Observations for July 18, 2016

Temp ( °F °C ) Dew Point ( °F °C ) Humidity (%) Winds ( mph kmh ) Pressure ( in mb ) Visibility ( mi km ) Precip ( " mm )
12:53 am 00:53 Mostly Cloudy 75 23.9 70 21.1 84 84 N N/A 30.14 1021 10 16 N/A
1:53 am 01:53 Clear 73 22.8 70 21.1 90 90 N N/A 30.13 1020 10 16 N/A
2:53 am 02:53 Clear 73 22.8 70 21.1 90 90 N N/A 30.11 1020 10 16 N/A
3:53 am 03:53 Clear 73 22.8 69 20.6 87 87 N N/A 30.11 1020 10 16 N/A
4:53 am 04:53 Clear 78 25.6 70 21.1 76 76 VRB 3 6 30.10 1019 10 16 N/A
5:53 am 05:53 Clear 78 25.6 71 21.7 79 79 WSW 6 9 30.10 1019 10 16 N/A
6:53 am 06:53 Sunny 78 25.6 71 21.7 79 79 VRB 5 7 30.12 1020 10 16 N/A
7:15 am 07:15 Mostly Cloudy with Nearby Thunderstorms 77 25 71 21.7 82 82 WNW 17 28 30.15 1021 7 11 N/A
7:25 am 07:25 Cloudy with Nearby Thunderstorms 75 23.9 66 18.9 74 74 N 14 22 30.15 1021 9 14 N/A
7:35 am 07:35 Cloudy with Light Rain 73 22.8 66 18.9 79 79 N 9 15 30.18 1022 10 16 N/A
7:42 am 07:42 Mostly Cloudy with Light Rain 73 22.8 66 18.9 79 79 NNW 8 13 30.21 1023 9 14 N/A
7:53 am 07:53 Cloudy with Light Rain 72 22.2 66 18.9 82 82 N 7 11 30.22 1023 8 13 0.01 0.25
8:32 am 08:32 Cloudy with Thunderstorms 70 21.1 67 19.4 90 90 N N/A 30.24 1024 3 4 0.11 2.79
8:39 am 08:39 Cloudy with Strong Thunderstorms 70 21.1 67 19.4 90 90 N N/A 30.24 1024 2 2 0.14 3.56
8:49 am 08:49 Cloudy with Nearby Thunderstorms 70 21 66 19 88 88 WNW 6 9 30.24 1024 2 3 0.18 4.57
8:53 am 08:53 Cloudy with Strong Thunderstorms 70 21.1 67 19.4 90 90 NW 5 7 30.25 1024 2 3 0.20 5.08
8:59 am 08:59 Cloudy with Strong Thunderstorms 70 21.1 67 19.4 90 90 W 5 7 30.24 1024 2 2 0.03 0.76
9:07 am 09:07 Cloudy with Nearby Thunderstorms 70 21.1 67 19.4 90 90 W 6 9 30.24 1024 2 3 0.06 1.52
9:11 am 09:11 Cloudy with Heavy Rain 70 21.1 67 19.4 90 90 W 9 15 30.24 1024 2 3 0.08 2.03
9:27 am 09:27 Cloudy with Strong Thunderstorms 69 20.6 65 18.3 87 87 NNW 6 9 30.24 1024 2 3 0.14 3.56
9:36 am 09:36 Cloudy with Rain 69 20.6 66 18.9 90 90 W 5 7 30.24 1024 3 5 0.17 4.32
9:46 am 09:46 Cloudy with Rain 69 20.6 66 18.9 90 90 SW 6 9 30.24 1024 3 4 0.20 5.08
9:53 am 09:53 Cloudy with Rain 68 20 66 18.9 93 93 S 5 7 30.23 1024 3 4 0.21 5.33
10:01 am 10:01 Cloudy with Rain 68 20 66 18.9 93 93 S 6 9 30.18 1022 4 6 0.02 0.51
10:53 am 10:53 Mostly Sunny 70 21.1 67 19.4 90 90 N N/A 30.19 1022 10 16 0.03 0.76
11:53 am 11:53 Sunny 74 23.3 68 20 82 82 W 8 13 30.20 1023 10 16 N/A
12:53 pm 12:53 Sunny 76 24.4 67 19.4 74 74 WSW 8 13 30.18 1022 10 16 N/A
1:53 pm 13:53 Sunny 82 27.8 69 20.6 65 65 W 13 20 30.17 1022 10 16 N/A
2:53 pm 14:53 Sunny 86 30 70 21.1 59 59 WNW 15 24 30.18 1022 10 16 N/A
3:53 pm 15:53 Mostly Sunny 85 29.4 70 21.1 61 61 W 13 20 30.18 1022 10 16 N/A
4:53 pm 16:53 Sunny 83 28.3 71 21.7 67 67 WSW 9 15 30.15 1021 10 16 N/A
5:53 pm 17:53 Sunny 83 28.3 69 20.6 63 63 WSW 10 17 30.15 1021 10 16 N/A
6:53 pm 18:53 Sunny 82 27.8 70 21.1 67 67 WNW 8 13 30.14 1021 10 16 N/A
7:53 pm 19:53 Sunny 81 27.2 70 21.1 69 69 NW 7 11 30.14 1021 10 16 N/A
8:53 pm 20:53 Mostly Sunny 78 25.6 71 21.7 79 79 W 3 6 30.15 1021 10 16 N/A
9:53 pm 21:53 Clear 73 22.8 70 21.1 90 90 N N/A 30.17 1022 10 16 N/A
10:53 pm 22:53 Clear 71 21.7 68 20 90 90 N N/A 30.19 1023 10 16 N/A
11:53 pm 23:53 Clear 71 21.7 68 20 90 90 W 3 6 30.21 1023 10 16 N/A

Powered by AerisWeather